[{"OBJECT_NAME":"FLOCK 4G-8","OBJECT_ID":"2025-009E","EPOCH":"2026-09-11T18:42:06.052608","MEAN_MOTION":15.31301501,"ECCENTRICITY":0.0004163,"INCLINATION":97.3962,"RA_OF_ASC_NODE":336.4874,"ARG_OF_PERICENTER":28.8,"MEAN_ANOMALY":331.3471,"EPHEMERIS_TYPE":0,"CLASSIFICATION_TYPE":"U","NORAD_CAT_ID":62613,"ELEMENT_SET_NO":999,"REV_AT_EPOCH":9216,"BSTAR":0.00035537,"MEAN_MOTION_DOT":0.00010673,"MEAN_MOTION_DDOT":0},{"OBJECT_NAME":"FLOCK 4G-13","OBJECT_ID":"2025-009N","EPOCH":"2026-09-11T18:04:09.475680","MEAN_MOTION":15.60601301,"ECCENTRICITY":0.0002599,"INCLINATION":97.3884,"RA_OF_ASC_NODE":340.4668,"ARG_OF_PERICENTER":286.9493,"MEAN_ANOMALY":73.1479,"EPHEMERIS_TYPE":0,"CLASSIFICATION_TYPE":"U","NORAD_CAT_ID":62621,"ELEMENT_SET_NO":999,"REV_AT_EPOCH":9242,"BSTAR":0.0015942,"MEAN_MOTION_DOT":0.00133604,"MEAN_MOTION_DDOT":0},{"OBJECT_NAME":"FLOCK 4G-9","OBJECT_ID":"2025-009P","EPOCH":"2026-09-11T16:11:24.871488","MEAN_MOTION":15.2937242,"ECCENTRICITY":0.00050105,"INCLINATION":97.3917,"RA_OF_ASC_NODE":335.0427,"ARG_OF_PERICENTER":35.5425,"MEAN_ANOMALY":324.6148,"EPHEMERIS_TYPE":0,"CLASSIFICATION_TYPE":"U","NORAD_CAT_ID":62622,"ELEMENT_SET_NO":999,"REV_AT_EPOCH":9207,"BSTAR":0.00022951823,"MEAN_MOTION_DOT":0.00006464,"MEAN_MOTION_DDOT":0},{"OBJECT_NAME":"FLOCK 4G-7","OBJECT_ID":"2025-009R","EPOCH":"2026-09-12T00:57:45.980928","MEAN_MOTION":15.30812516,"ECCENTRICITY":0.0002929,"INCLINATION":97.3896,"RA_OF_ASC_NODE":335.934,"ARG_OF_PERICENTER":43.0291,"MEAN_ANOMALY":317.1179,"EPHEMERIS_TYPE":0,"CLASSIFICATION_TYPE":"U","NORAD_CAT_ID":62624,"ELEMENT_SET_NO":999,"REV_AT_EPOCH":9218,"BSTAR":0.00027533,"MEAN_MOTION_DOT":0.00008124,"MEAN_MOTION_DDOT":0},{"OBJECT_NAME":"FLOCK 4G-12","OBJECT_ID":"2025-009S","EPOCH":"2026-09-12T04:02:27.231936","MEAN_MOTION":15.30768752,"ECCENTRICITY":0.0004034,"INCLINATION":97.3982,"RA_OF_ASC_NODE":336.6684,"ARG_OF_PERICENTER":23.9279,"MEAN_ANOMALY":336.2149,"EPHEMERIS_TYPE":0,"CLASSIFICATION_TYPE":"U","NORAD_CAT_ID":62625,"ELEMENT_SET_NO":999,"REV_AT_EPOCH":9220,"BSTAR":0.00023322,"MEAN_MOTION_DOT":0.0000686,"MEAN_MOTION_DDOT":0},{"OBJECT_NAME":"FLOCK 4G-11","OBJECT_ID":"2025-009W","EPOCH":"2026-09-12T00:24:46.717632","MEAN_MOTION":15.30968453,"ECCENTRICITY":0.0003081,"INCLINATION":97.388,"RA_OF_ASC_NODE":336.0107,"ARG_OF_PERICENTER":41.8865,"MEAN_ANOMALY":318.2611,"EPHEMERIS_TYPE":0,"CLASSIFICATION_TYPE":"U","NORAD_CAT_ID":62629,"ELEMENT_SET_NO":999,"REV_AT_EPOCH":9219,"BSTAR":0.00028421,"MEAN_MOTION_DOT":0.00008429,"MEAN_MOTION_DDOT":0},{"OBJECT_NAME":"PELICAN-2","OBJECT_ID":"2025-009Y","EPOCH":"2026-09-11T19:37:08.298624","MEAN_MOTION":15.40719095,"ECCENTRICITY":0.000088,"INCLINATION":97.2047,"RA_OF_ASC_NODE":344.5224,"ARG_OF_PERICENTER":46.8255,"MEAN_ANOMALY":313.3065,"EPHEMERIS_TYPE":0,"CLASSIFICATION_TYPE":"U","NORAD_CAT_ID":62631,"ELEMENT_SET_NO":999,"REV_AT_EPOCH":9289,"BSTAR":0.00016151,"MEAN_MOTION_DOT":0.00006515,"MEAN_MOTION_DDOT":0},{"OBJECT_NAME":"FLOCK 4G-26","OBJECT_ID":"2025-009AA","EPOCH":"2026-09-12T00:32:55.376160","MEAN_MOTION":15.31142374,"ECCENTRICITY":0.0003152,"INCLINATION":97.3974,"RA_OF_ASC_NODE":336.7119,"ARG_OF_PERICENTER":21.6755,"MEAN_ANOMALY":338.4619,"EPHEMERIS_TYPE":0,"CLASSIFICATION_TYPE":"U","NORAD_CAT_ID":62633,"ELEMENT_SET_NO":999,"REV_AT_EPOCH":9219,"BSTAR":0.00025535,"MEAN_MOTION_DOT":0.00007606,"MEAN_MOTION_DDOT":0},{"OBJECT_NAME":"FLOCK 4G-28","OBJECT_ID":"2025-009AB","EPOCH":"2026-09-12T04:25:46.949952","MEAN_MOTION":15.3616717,"ECCENTRICITY":0.0002053,"INCLINATION":97.3993,"RA_OF_ASC_NODE":340.1244,"ARG_OF_PERICENTER":43.7076,"MEAN_ANOMALY":316.433,"EPHEMERIS_TYPE":0,"CLASSIFICATION_TYPE":"U","NORAD_CAT_ID":62634,"ELEMENT_SET_NO":999,"REV_AT_EPOCH":9243,"BSTAR":0.00019766,"MEAN_MOTION_DOT":0.00006883,"MEAN_MOTION_DDOT":0},{"OBJECT_NAME":"FLOCK 4G-24","OBJECT_ID":"2025-009AE","EPOCH":"2026-09-11T18:19:59.144736","MEAN_MOTION":15.31355115,"ECCENTRICITY":0.0002723,"INCLINATION":97.3987,"RA_OF_ASC_NODE":336.7842,"ARG_OF_PERICENTER":12.713,"MEAN_ANOMALY":347.418,"EPHEMERIS_TYPE":0,"CLASSIFICATION_TYPE":"U","NORAD_CAT_ID":62637,"ELEMENT_SET_NO":999,"REV_AT_EPOCH":9217,"BSTAR":0.00026123,"MEAN_MOTION_DOT":0.00007834,"MEAN_MOTION_DDOT":0},{"OBJECT_NAME":"FLOCK 4G-3","OBJECT_ID":"2025-009AG","EPOCH":"2026-09-12T00:52:16.502304","MEAN_MOTION":15.30922306,"ECCENTRICITY":0.0002537,"INCLINATION":97.3984,"RA_OF_ASC_NODE":336.7235,"ARG_OF_PERICENTER":26.632,"MEAN_ANOMALY":333.5051,"EPHEMERIS_TYPE":0,"CLASSIFICATION_TYPE":"U","NORAD_CAT_ID":62639,"ELEMENT_SET_NO":999,"REV_AT_EPOCH":9218,"BSTAR":0.00026452,"MEAN_MOTION_DOT":0.00007828,"MEAN_MOTION_DDOT":0},{"OBJECT_NAME":"FLOCK 4G-27","OBJECT_ID":"2025-009AJ","EPOCH":"2026-09-11T19:08:49.913952","MEAN_MOTION":15.30816325,"ECCENTRICITY":0.000235,"INCLINATION":97.3891,"RA_OF_ASC_NODE":335.7547,"ARG_OF_PERICENTER":40.293,"MEAN_ANOMALY":319.8485,"EPHEMERIS_TYPE":0,"CLASSIFICATION_TYPE":"U","NORAD_CAT_ID":62641,"ELEMENT_SET_NO":999,"REV_AT_EPOCH":9214,"BSTAR":0.00027381,"MEAN_MOTION_DOT":0.00008079,"MEAN_MOTION_DDOT":0},{"OBJECT_NAME":"FLOCK 4G-29","OBJECT_ID":"2025-009AK","EPOCH":"2026-09-12T00:13:47.341344","MEAN_MOTION":15.32960079,"ECCENTRICITY":0.0000935,"INCLINATION":97.3973,"RA_OF_ASC_NODE":336.7252,"ARG_OF_PERICENTER":337.7266,"MEAN_ANOMALY":22.3935,"EPHEMERIS_TYPE":0,"CLASSIFICATION_TYPE":"U","NORAD_CAT_ID":62642,"ELEMENT_SET_NO":999,"REV_AT_EPOCH":9218,"BSTAR":0.00095123,"MEAN_MOTION_DOT":0.00030291,"MEAN_MOTION_DDOT":0},{"OBJECT_NAME":"FLOCK 4G-22","OBJECT_ID":"2025-009AN","EPOCH":"2026-09-12T04:40:04.818144","MEAN_MOTION":15.30808597,"ECCENTRICITY":0.0002146,"INCLINATION":97.3966,"RA_OF_ASC_NODE":336.8517,"ARG_OF_PERICENTER":29.7111,"MEAN_ANOMALY":330.4251,"EPHEMERIS_TYPE":0,"CLASSIFICATION_TYPE":"U","NORAD_CAT_ID":62645,"ELEMENT_SET_NO":999,"REV_AT_EPOCH":9222,"BSTAR":0.00026639,"MEAN_MOTION_DOT":0.00007856,"MEAN_MOTION_DDOT":0},{"OBJECT_NAME":"FLOCK 4G-25","OBJECT_ID":"2025-009AP","EPOCH":"2026-09-11T23:07:40.968768","MEAN_MOTION":15.30999071,"ECCENTRICITY":0.000208,"INCLINATION":97.3975,"RA_OF_ASC_NODE":336.7266,"ARG_OF_PERICENTER":42.7056,"MEAN_ANOMALY":317.4346,"EPHEMERIS_TYPE":0,"CLASSIFICATION_TYPE":"U","NORAD_CAT_ID":62646,"ELEMENT_SET_NO":999,"REV_AT_EPOCH":9219,"BSTAR":0.00026652,"MEAN_MOTION_DOT":0.00007906,"MEAN_MOTION_DDOT":0},{"OBJECT_NAME":"FLOCK 4G-23","OBJECT_ID":"2025-009AQ","EPOCH":"2026-09-11T22:51:00.809280","MEAN_MOTION":15.39331708,"ECCENTRICITY":0.000034,"INCLINATION":97.388,"RA_OF_ASC_NODE":336.9471,"ARG_OF_PERICENTER":44.4245,"MEAN_ANOMALY":315.7027,"EPHEMERIS_TYPE":0,"CLASSIFICATION_TYPE":"U","NORAD_CAT_ID":62647,"ELEMENT_SET_NO":999,"REV_AT_EPOCH":9224,"BSTAR":0.0010651,"MEAN_MOTION_DOT":0.00041666,"MEAN_MOTION_DDOT":0},{"OBJECT_NAME":"FLOCK 4G-34","OBJECT_ID":"2025-009AT","EPOCH":"2026-09-12T04:13:49.208736","MEAN_MOTION":15.30601614,"ECCENTRICITY":0.0002295,"INCLINATION":97.3925,"RA_OF_ASC_NODE":336.3561,"ARG_OF_PERICENTER":40.5183,"MEAN_ANOMALY":319.6229,"EPHEMERIS_TYPE":0,"CLASSIFICATION_TYPE":"U","NORAD_CAT_ID":62650,"ELEMENT_SET_NO":999,"REV_AT_EPOCH":9221,"BSTAR":0.00022526,"MEAN_MOTION_DOT":0.00006587,"MEAN_MOTION_DDOT":0},{"OBJECT_NAME":"FLOCK 4G-21","OBJECT_ID":"2025-009AU","EPOCH":"2026-09-12T04:19:07.485600","MEAN_MOTION":15.36789811,"ECCENTRICITY":0.0001708,"INCLINATION":97.3945,"RA_OF_ASC_NODE":337.7947,"ARG_OF_PERICENTER":46.4627,"MEAN_ANOMALY":313.6759,"EPHEMERIS_TYPE":0,"CLASSIFICATION_TYPE":"U","NORAD_CAT_ID":62651,"ELEMENT_SET_NO":999,"REV_AT_EPOCH":9229,"BSTAR":0.00087598,"MEAN_MOTION_DOT":0.00031502,"MEAN_MOTION_DDOT":0},{"OBJECT_NAME":"FLOCK 4G-31","OBJECT_ID":"2025-009AV","EPOCH":"2026-09-11T19:38:14.734176","MEAN_MOTION":15.30582929,"ECCENTRICITY":0.0002166,"INCLINATION":97.3928,"RA_OF_ASC_NODE":335.9654,"ARG_OF_PERICENTER":58.3497,"MEAN_ANOMALY":301.7955,"EPHEMERIS_TYPE":0,"CLASSIFICATION_TYPE":"U","NORAD_CAT_ID":62652,"ELEMENT_SET_NO":999,"REV_AT_EPOCH":9215,"BSTAR":0.00026323,"MEAN_MOTION_DOT":0.00007707,"MEAN_MOTION_DDOT":0},{"OBJECT_NAME":"FLOCK 4G-4","OBJECT_ID":"2025-009BC","EPOCH":"2026-09-12T00:44:16.323072","MEAN_MOTION":15.35968927,"ECCENTRICITY":0.0002639,"INCLINATION":97.3896,"RA_OF_ASC_NODE":336.3194,"ARG_OF_PERICENTER":22.3158,"MEAN_ANOMALY":337.82,"EPHEMERIS_TYPE":0,"CLASSIFICATION_TYPE":"U","NORAD_CAT_ID":62659,"ELEMENT_SET_NO":999,"REV_AT_EPOCH":14981,"BSTAR":0.00094148,"MEAN_MOTION_DOT":0.00032992,"MEAN_MOTION_DDOT":0},{"OBJECT_NAME":"FLOCK 4G-6","OBJECT_ID":"2025-009BD","EPOCH":"2026-09-12T04:27:02.181024","MEAN_MOTION":15.30947664,"ECCENTRICITY":0.0003773,"INCLINATION":97.3897,"RA_OF_ASC_NODE":336.1945,"ARG_OF_PERICENTER":45.1433,"MEAN_ANOMALY":315.0114,"EPHEMERIS_TYPE":0,"CLASSIFICATION_TYPE":"U","NORAD_CAT_ID":62660,"ELEMENT_SET_NO":999,"REV_AT_EPOCH":14980,"BSTAR":0.00026405,"MEAN_MOTION_DOT":0.00007821,"MEAN_MOTION_DDOT":0},{"OBJECT_NAME":"FLOCK 4G-2","OBJECT_ID":"2025-009BE","EPOCH":"2026-09-12T00:48:15.524928","MEAN_MOTION":15.31356611,"ECCENTRICITY":0.0004339,"INCLINATION":97.3966,"RA_OF_ASC_NODE":336.7725,"ARG_OF_PERICENTER":35.7993,"MEAN_ANOMALY":324.3538,"EPHEMERIS_TYPE":0,"CLASSIFICATION_TYPE":"U","NORAD_CAT_ID":62661,"ELEMENT_SET_NO":999,"REV_AT_EPOCH":14981,"BSTAR":0.00028844,"MEAN_MOTION_DOT":0.00008661,"MEAN_MOTION_DDOT":0},{"OBJECT_NAME":"FLOCK 4G-5","OBJECT_ID":"2025-009BG","EPOCH":"2026-09-12T00:13:32.846016","MEAN_MOTION":15.31791656,"ECCENTRICITY":0.0003352,"INCLINATION":97.3988,"RA_OF_ASC_NODE":337.2081,"ARG_OF_PERICENTER":24.412,"MEAN_ANOMALY":335.728,"EPHEMERIS_TYPE":0,"CLASSIFICATION_TYPE":"U","NORAD_CAT_ID":62663,"ELEMENT_SET_NO":999,"REV_AT_EPOCH":9222,"BSTAR":0.00023032,"MEAN_MOTION_DOT":0.00006993,"MEAN_MOTION_DDOT":0}]